[[{"header":{"parameterUnit":"m.s-1","parameterCategory":2,"la1":30.2991,"la2":30.254,"lo1":-89.0895,"lo2":-89.0444,"dy":0.0017,"dx":0.0017,"nx":28,"ny":28,"refTime":"2025-03-23T21:00:00:Z","depth":"0","parameterNumber":2,"parameterNumberName":"U-component_of_CURRENTS"},"data":[0,0,0,0,0,0,0,0,0,0,0,0,0,0,0,0,0,0,0,0,0,0,0,0,0,0,0,0,0,0,0,0,0,0,0,0,0,0,0,0,0,0,0,0,0,0,0,0,0,0,0,0,0,0,0,0,0,0,-0.361,-0.3611,0,-0.3694,-0.3695,-0.3696,-0.3715,-0.3714,-0.3713,-0.3713,-0.3603,-0.3601,-0.3599,0,0,0,0,0,0,0,0,0,0,0,0,0,-0.3459,-0.3462,-0.361,-0.3611,-0.3612,-0.3694,-0.3695,-0.3697,-0.3715,-0.3714,-0.3713,-0.3712,-0.3604,-0.3601,-0.3598,0,0,0,0,0,0,0,0,0,0,0,0,0,-0.3533,-0.3463,-0.361,-0.363,-0.3633,-0.3694,-0.3695,-0.3697,-0.3715,-0.3714,-0.3713,-0.3712,-0.3605,-0.3601,-0.3598,-0.3598,0,0,-0.3588,-0.3586,0,0,0,0,0,0,0,0,-0.3529,-0.3539,-0.3626,-0.3629,-0.3632,-0.3692,-0.3602,-0.3654,-0.3715,-0.3685,-0.3713,-0.3711,-0.3615,-0.3611,-0.3633,-0.3593,-0.3588,-0.3587,-0.3585,-0.3584,-0.3583,0,0,0,0,0,0,0,-0.3524,-0.3535,-0.3644,-0.3627,-0.3631,-0.3633,-0.3643,-0.3613,-0.3652,-0.3687,-0.3688,-0.3697,-0.3615,-0.3637,-0.363,-0.3586,-0.3587,-0.3584,-0.3582,-0.3581,-0.3545,-0.3546,0,0,0,0,0,0,-0.3514,-0.3531,-0.3641,-0.3647,-0.3576,-0.3637,-0.3648,-0.3675,-0.3656,-0.3654,-0.3698,-0.3697,-0.3643,-0.3634,-0.3626,-0.3568,-0.3584,-0.3581,-0.3579,-0.3544,-0.3546,-0.3547,0,0,0,0,0,0,-0.3511,-0.3524,-0.3638,-0.3588,-0.3603,-0.3641,-0.3671,-0.3677,-0.3698,-0.3666,-0.366,-0.3712,-0.3642,-0.3631,-0.3602,-0.3565,-0.3579,-0.3576,-0.3543,-0.3545,-0.3546,-0.3487,0,0,0,0,0,0,-0.3506,-0.3523,-0.3543,-0.3589,-0.3605,-0.3664,-0.3672,-0.3679,-0.3704,-0.3705,-0.3676,-0.3666,-0.364,-0.3608,-0.3599,-0.3561,-0.3573,-0.3542,-0.3544,-0.3546,-0.3488,-0.3486,-0.3485,0,0,0,0,0,-0.3501,-0.3554,-0.3544,-0.3558,-0.3632,-0.3664,-0.3673,-0.3696,-0.3706,-0.3713,-0.37,-0.3667,-0.3615,-0.3606,-0.3595,-0.3555,-0.3541,-0.3543,-0.3545,-0.3488,-0.3487,-0.3486,0,0,0,0,0,0,-0.3487,-0.3561,-0.3552,-0.3619,-0.3624,-0.3667,-0.369,-0.3701,-0.3705,-0.3701,-0.3673,-0.3662,-0.362,-0.3618,-0.3609,-0.3562,-0.3575,-0.3576,-0.3535,-0.3534,-0.3533,-0.3466,-0.3571,0,0,0,0,0,-0.3493,-0.3559,-0.3584,-0.3627,-0.3634,-0.3657,-0.3677,-0.3684,-0.3694,-0.3698,-0.3673,-0.3655,-0.3627,-0.3605,-0.3582,-0.3553,-0.3525,-0.3531,-0.353,-0.3528,-0.3473,-0.3422,-0.3408,-0.3555,-0.3555,-0.3555,0,0,-0.3494,-0.3545,-0.3576,-0.3629,-0.3641,-0.3621,-0.3667,-0.3694,-0.366,-0.3679,-0.3635,-0.3641,-0.3622,-0.3585,-0.3567,-0.3572,-0.3485,-0.3531,-0.3529,-0.3474,-0.3422,-0.3407,-0.3394,-0.3556,-0.3556,-0.3556,0,0,-0.3493,-0.357,-0.3587,-0.3597,-0.3616,-0.3626,-0.3627,-0.3651,-0.3648,-0.3627,-0.3623,-0.3606,-0.3583,-0.3544,-0.3526,-0.3511,-0.348,-0.3529,-0.3454,-0.3406,-0.3391,-0.3378,-0.3362,-0.3348,-0.3528,-0.3528,-0.3528,0,-0.3473,-0.3493,-0.3588,-0.3578,-0.3565,-0.3614,-0.3566,-0.3581,-0.3584,-0.3567,-0.36,-0.3556,-0.3546,-0.3467,-0.3467,-0.3493,-0.3482,-0.3451,-0.3397,-0.3383,-0.337,-0.3356,-0.3341,-0.3525,-0.3526,-0.3526,-0.3526,0,-0.3437,-0.3449,-0.3462,-0.3455,-0.3466,-0.3451,-0.346,-0.3464,-0.348,-0.3476,-0.3434,-0.3442,-0.3411,-0.3422,-0.343,-0.3341,-0.337,-0.3397,-0.3382,-0.335,-0.3341,-0.3326,-0.3522,-0.3523,-0.3523,-0.3524,0,0,-0.3365,-0.3419,-0.3409,-0.3378,-0.3393,-0.3394,-0.3361,-0.3326,-0.3312,-0.3314,-0.327,-0.3237,-0.3267,-0.3249,-0.3271,-0.3227,-0.3154,-0.3268,-0.3267,-0.3219,-0.3065,-0.2997,-0.2974,-0.3172,-0.3168,-0.3165,-0.3108,0,-0.3262,-0.3219,-0.3275,-0.3199,-0.316,-0.3214,-0.3188,-0.3186,-0.3207,-0.3196,-0.3191,-0.3173,-0.3195,-0.3207,-0.3152,-0.317,-0.3104,-0.3167,-0.313,-0.3128,-0.3041,-0.2949,-0.2832,-0.2761,-0.3093,-0.3091,-0.3089,0,-0.3162,-0.3145,-0.3057,-0.307,-0.306,-0.3035,-0.3023,-0.3012,-0.3027,-0.3056,-0.3034,-0.3068,-0.3008,-0.3055,-0.2975,-0.3021,-0.3005,-0.301,-0.3009,-0.2932,-0.3026,-0.2843,-0.2721,-0.2717,-0.3065,-0.3067,-0.3069,0,-0.302,-0.2999,-0.2923,-0.2914,-0.2926,-0.2908,-0.2922,-0.2951,-0.2963,-0.2969,-0.2999,-0.2943,-0.2955,-0.2895,-0.2916,-0.2944,-0.2842,-0.2898,-0.2801,-0.28,-0.2677,-0.2669,-0.2499,-0.2774,-0.2774,-0.2775,-0.2775,0,-0.2879,-0.2827,-0.286,-0.2803,-0.2754,-0.2811,-0.2785,-0.2816,-0.2863,-0.2864,-0.2915,-0.2907,-0.2914,-0.2889,-0.287,-0.2781,-0.28,-0.2726,-0.2744,-0.2663,-0.2655,-0.263,-0.2679,-0.2773,-0.2773,-0.2773,-0.2774,0,-0.2727,-0.2749,-0.2675,-0.2669,-0.2681,-0.265,-0.2728,-0.2727,-0.2798,-0.2805,-0.2811,-0.2871,-0.2834,-0.2833,-0.2776,-0.2735,-0.2612,-0.262,-0.2539,-0.2544,-0.2427,-0.2478,-0.2314,-0.2248,-0.2479,-0.2476,-0.2474,0,-0.2637,-0.2571,-0.2561,-0.2545,-0.254,-0.2542,-0.2557,-0.266,-0.2683,-0.2768,-0.2754,-0.2764,-0.2717,-0.2632,-0.2557,-0.2465,-0.2499,-0.2327,-0.2316,-0.2332,-0.2406,-0.2462,-0.2423,-0.217,-0.2165,-0.2162,-0.2159,0,-0.2428,-0.244,-0.2388,-0.2363,-0.2368,-0.2389,-0.2428,-0.2455,-0.2569,-0.2594,-0.2599,-0.257,-0.2507,-0.2365,-0.2287,-0.2223,-0.2268,-0.2245,-0.226,-0.2102,-0.2148,-0.2126,-0.2348,-0.2126,-0.2129,-0.2131,-0.2133,-0.2135,-0.2285,-0.2224,-0.2183,-0.216,-0.2183,-0.2203,-0.2184,-0.2261,-0.2285,-0.2291,-0.2368,-0.227,-0.2232,-0.2082,-0.2029,-0.192,-0.1999,-0.1876,-0.1931,-0.1981,-0.1898,-0.2047,-0.185,-0.1851,-0.1853,-0.1854,-0.1855,0,-0.2074,-0.2036,-0.1989,-0.1966,-0.1936,-0.2016,-0.206,-0.2018,-0.1995,-0.2016,-0.1984,-0.1906,-0.1804,-0.1792,-0.1718,-0.1645,-0.1625,-0.1632,-0.168,-0.1648,-0.1754,-0.1719,-0.1484,-0.1484,-0.1484,-0.1484,-0.1484,-0.1484,-0.1968,-0.1847,-0.1825,-0.1711,-0.1711,-0.1635,-0.1632,-0.16,-0.158,-0.1478,-0.1432,-0.1416,-0.1508,-0.1703,-0.164,-0.1563,-0.1558,-0.1502,-0.1557,-0.1659,-0.1687,-0.1714,-0.1688,-0.145,-0.145,-0.1373,-0.1373,-0.1373]},{"header":{"parameterUnit":"m.s-1","parameterCategory":2,"la1":30.2991,"la2":30.254,"lo1":-89.0895,"lo2":-89.0444,"dy":0.0017,"dx":0.0017,"nx":28,"ny":28,"refTime":"2025-03-23T21:00:00:Z","depth":"0","parameterNumber":3,"parameterNumberName":"V-component_of_CURRENTS"},"data":[0,0,0,0,0,0,0,0,0,0,0,0,0,0,0,0,0,0,0,0,0,0,0,0,0,0,0,0,0,0,0,0,0,0,0,0,0,0,0,0,0,0,0,0,0,0,0,0,0,0,0,0,0,0,0,0,0,0,0.0061,0.0063,0,0.0313,0.0316,0.0319,0.0504,0.0506,0.0507,0.0509,0.0731,0.0735,0.074,0,0,0,0,0,0,0,0,0,0,0,0,0,-0.0148,-0.0145,0.006,0.0064,0.0067,0.0313,0.0316,0.032,0.0504,0.0506,0.0508,0.0509,0.073,0.0735,0.074,0,0,0,0,0,0,0,0,0,0,0,0,0,0.0008,-0.0145,0.006,0.0187,0.0201,0.0312,0.0317,0.0321,0.0504,0.0506,0.0508,0.051,0.0728,0.0734,0.0741,0.0738,0,0,0.0762,0.0765,0,0,0,0,0,0,0,0,-0.0001,0.0016,0.0166,0.0179,0.0195,0.0379,0.0325,0.0459,0.0503,0.039,0.0509,0.0511,0.0608,0.0625,0.0669,0.0748,0.0758,0.0762,0.0767,0.0769,0.0771,0,0,0,0,0,0,0,-0.0012,0.0006,0.0162,0.0169,0.0186,0.0272,0.0295,0.0352,0.0483,0.04,0.0414,0.044,0.0616,0.0662,0.0676,0.0761,0.0762,0.0768,0.0772,0.0775,0.089,0.0889,0,0,0,0,0,0,-0.0054,-0.0005,0.0154,0.0169,0.0099,0.0273,0.0299,0.0318,0.0484,0.0511,0.0437,0.0447,0.065,0.0668,0.0684,0.0697,0.0769,0.0776,0.078,0.0891,0.089,0.0888,0,0,0,0,0,0,-0.0059,-0.0042,0.0143,0.0088,0.0118,0.0273,0.0293,0.0322,0.0374,0.0513,0.054,0.046,0.0652,0.0675,0.0717,0.0706,0.0779,0.0785,0.0892,0.089,0.0889,0.0717,0,0,0,0,0,0,-0.0067,-0.0046,-0.0049,0.0084,0.0119,0.019,0.0292,0.0325,0.0386,0.0401,0.054,0.0564,0.0656,0.0706,0.0724,0.0717,0.079,0.0893,0.0891,0.0889,0.0724,0.0709,0.0697,0,0,0,0,0,-0.0075,-0.0086,-0.0051,-0.0031,0.0111,0.0189,0.0213,0.0334,0.0384,0.0391,0.0478,0.056,0.0708,0.0709,0.0731,0.0726,0.0894,0.0892,0.089,0.073,0.0712,0.0698,0,0,0,0,0,0,-0.0176,-0.0064,-0.0023,0.0001,0.0076,0.022,0.024,0.0314,0.0392,0.0403,0.0533,0.0561,0.0603,0.0676,0.0674,0.0755,0.082,0.0821,0.0691,0.0676,0.0663,0.0651,0.0796,0,0,0,0,0,-0.0207,-0.0184,-0.0073,-0.0058,-0.0031,0.0095,0.0142,0.0217,0.0306,0.0346,0.0439,0.0534,0.0609,0.0647,0.0724,0.0748,0.081,0.0765,0.0751,0.0739,0.0745,0.0782,0.0772,0.0881,0.0881,0.0881,0,0,-0.0243,-0.0179,-0.0166,-0.0079,-0.0011,0.0024,0.0129,0.0181,0.0217,0.0351,0.0405,0.0485,0.0604,0.0646,0.0672,0.0705,0.0741,0.0736,0.0725,0.0738,0.0778,0.0768,0.0758,0.0879,0.088,0.088,0,0,-0.0304,-0.0256,-0.0257,-0.0203,-0.0116,-0.0041,-0.0038,0.0081,0.0138,0.0187,0.0298,0.036,0.0471,0.0557,0.0615,0.0569,0.0668,0.0596,0.0522,0.0555,0.0547,0.054,0.0598,0.0597,0.059,0.0589,0.0589,0,-0.0357,-0.0327,-0.0249,-0.0232,-0.0192,-0.0084,-0.0075,-0.001,0.0109,0.014,0.018,0.0343,0.0438,0.0505,0.0501,0.0542,0.0578,0.0567,0.0535,0.053,0.0526,0.0588,0.0589,0.0581,0.0582,0.0583,0.0583,0,-0.0406,-0.038,-0.0382,-0.0323,-0.0283,-0.026,-0.0167,-0.0134,-0.0064,0.0016,0.0082,0.0197,0.0304,0.0336,0.0412,0.0434,0.0476,0.0508,0.0567,0.0504,0.0574,0.0579,0.0568,0.0572,0.0574,0.0576,0,0,-0.0521,-0.0434,-0.0434,-0.0412,-0.0325,-0.0296,-0.027,-0.0201,-0.0173,-0.0088,-0.0043,0.0073,0.014,0.021,0.0302,0.0334,0.034,0.0396,0.0402,0.0439,0.0422,0.0489,0.0503,0.0349,0.0349,0.0349,0.048,0,-0.058,-0.0568,-0.0506,-0.0498,-0.048,-0.0392,-0.037,-0.0302,-0.0228,-0.0168,-0.0063,0.0018,0.0091,0.0141,0.0176,0.0319,0.0346,0.0303,0.0493,0.0499,0.0554,0.0508,0.0559,0.0683,0.0485,0.0486,0.0487,0,-0.0641,-0.0615,-0.0618,-0.0557,-0.0547,-0.0534,-0.0478,-0.044,-0.0341,-0.0284,-0.0209,-0.0103,-0.0007,0.0047,0.0212,0.0175,0.0279,0.0369,0.0376,0.0508,0.0576,0.0719,0.0701,0.0883,0.0496,0.0495,0.0494,0,-0.0732,-0.0693,-0.0695,-0.0673,-0.0599,-0.0597,-0.0563,-0.0481,-0.0446,-0.035,-0.031,-0.0191,-0.0098,0.001,0.0222,0.0208,0.0398,0.0411,0.0563,0.0571,0.0692,0.071,0.0865,0.0492,0.0492,0.0491,0.0491,0,-0.0794,-0.0794,-0.0739,-0.0734,-0.0749,-0.0675,-0.0675,-0.0622,-0.0542,-0.0492,-0.0375,-0.0297,-0.0109,0.0042,0.019,0.041,0.0379,0.0552,0.0602,0.0635,0.0645,0.0875,0.0935,0.0496,0.0495,0.0494,0.0493,0,-0.0867,-0.0831,-0.0833,-0.0789,-0.0783,-0.0794,-0.0747,-0.0735,-0.0654,-0.0585,-0.0553,-0.0363,-0.0155,0.0041,0.0276,0.0401,0.0704,0.0666,0.0708,0.076,0.1047,0.1094,0.1301,0.1405,0.0839,0.0841,0.0843,0,-0.0892,-0.0898,-0.0891,-0.0907,-0.0887,-0.0888,-0.0884,-0.0805,-0.0774,-0.0605,-0.0571,-0.0353,-0.0162,0.0202,0.0454,0.0718,0.0834,0.0911,0.0889,0.1074,0.1164,0.1189,0.1263,0.0988,0.0991,0.0994,0.0996,0,-0.0935,-0.0942,-0.0947,-0.0984,-0.0997,-0.1003,-0.098,-0.0965,-0.0843,-0.0733,-0.0537,-0.0365,-0.0006,0.035,0.0683,0.0834,0.1045,0.0969,0.1148,0.1282,0.1334,0.1455,0.0907,0.1018,0.1015,0.1014,0.1013,0.1012,-0.0969,-0.0999,-0.1018,-0.1053,-0.1079,-0.1086,-0.1064,-0.0974,-0.0867,-0.0607,-0.0511,-0.0149,0.0278,0.0769,0.0937,0.1319,0.1248,0.1434,0.1474,0.1484,0.1583,0.1091,0.126,0.1259,0.1259,0.1258,0.1257,0,-0.0992,-0.1028,-0.1076,-0.1114,-0.1155,-0.1145,-0.1098,-0.099,-0.0796,-0.0489,-0.0244,0.0307,0.0753,0.1144,0.1625,0.1828,0.1849,0.1922,0.1976,0.2026,0.1597,0.1604,0.187,0.187,0.187,0.187,0.1869,0.1869,-0.0998,-0.1056,-0.1084,-0.1159,-0.1189,-0.117,-0.1123,-0.0866,-0.0607,-0.0083,0.0333,0.0609,0.1089,0.1808,0.2276,0.2307,0.2486,0.2445,0.2542,0.2255,0.2212,0.2172,0.2196,0.2581,0.2582,0.2972,0.2976,0.2979]}],[{"header":{"parameterUnit":"m.s-1","parameterCategory":2,"la1":30.2991,"la2":30.254,"lo1":-89.0895,"lo2":-89.0444,"dy":0.0017,"dx":0.0017,"nx":28,"ny":28,"refTime":"2025-03-23T21:00:00:Z","depth":"2","parameterNumber":2,"parameterNumberName":"U-component_of_CURRENTS"},"data":[0,0,0,0,0,0,0,0,0,0,0,0,0,0,0,0,0,0,0,0,0,0,0,0,0,0,0,0,0,0,0,0,0,0,0,0,0,0,0,0,0,0,0,0,0,0,0,0,0,0,0,0,0,0,0,0,0,0,-0.2911,-0.2914,0,-0.3004,-0.3003,-0.3002,-0.2926,-0.2925,-0.2924,-0.2923,-0.2945,-0.2947,-0.2948,0,0,0,0,0,0,0,0,0,0,0,0,0,-0.2802,-0.2802,-0.2911,-0.2914,-0.2918,-0.3004,-0.3003,-0.3002,-0.2926,-0.2925,-0.2924,-0.2922,-0.2944,-0.2946,-0.2948,0,0,0,0,0,0,0,0,0,0,0,0,0,-0.2846,-0.2802,-0.291,-0.2907,-0.2909,-0.3004,-0.3003,-0.3002,-0.2927,-0.2925,-0.2923,-0.2922,-0.2944,-0.2946,-0.2949,-0.2999,0,0,-0.2956,-0.2957,0,0,0,0,0,0,0,0,-0.2843,-0.2847,-0.2904,-0.2907,-0.291,-0.2971,-0.2975,-0.3005,-0.2927,-0.2896,-0.2923,-0.2921,-0.2963,-0.2964,-0.2954,-0.3,-0.3001,-0.2957,-0.2958,-0.2959,-0.296,0,0,0,0,0,0,0,-0.284,-0.2844,-0.2925,-0.2908,-0.2912,-0.2948,-0.2948,-0.2979,-0.2919,-0.2899,-0.2899,-0.2946,-0.2961,-0.2952,-0.2955,-0.3001,-0.2957,-0.2959,-0.296,-0.2961,-0.3078,-0.3079,0,0,0,0,0,0,-0.2869,-0.284,-0.2922,-0.293,-0.2897,-0.2953,-0.2952,-0.2935,-0.2921,-0.2924,-0.2947,-0.2942,-0.2949,-0.2952,-0.2955,-0.2976,-0.2959,-0.2961,-0.2963,-0.3076,-0.3078,-0.308,0,0,0,0,0,0,-0.2865,-0.2872,-0.2919,-0.2909,-0.292,-0.2957,-0.2939,-0.2938,-0.2961,-0.2963,-0.2959,-0.2977,-0.2947,-0.2952,-0.3003,-0.2977,-0.2963,-0.2965,-0.3074,-0.3077,-0.3079,-0.3042,0,0,0,0,0,0,-0.286,-0.2868,-0.2884,-0.2909,-0.2923,-0.2988,-0.2943,-0.2942,-0.3002,-0.2996,-0.2988,-0.2985,-0.2946,-0.3,-0.3006,-0.2981,-0.2967,-0.3072,-0.3075,-0.3078,-0.3041,-0.3043,-0.3044,0,0,0,0,0,-0.2854,-0.2884,-0.2882,-0.2896,-0.2933,-0.2993,-0.3,-0.3008,-0.3006,-0.3018,-0.3019,-0.2987,-0.3021,-0.3005,-0.3011,-0.2985,-0.3071,-0.3075,-0.3078,-0.304,-0.3042,-0.3044,0,0,0,0,0,0,-0.2847,-0.2883,-0.2879,-0.2917,-0.2963,-0.2988,-0.3035,-0.3043,-0.3054,-0.3055,-0.3029,-0.3028,-0.3053,-0.3057,-0.3039,-0.3034,-0.3034,-0.3039,-0.3003,-0.3005,-0.3007,-0.2954,-0.2969,0,0,0,0,0,-0.2859,-0.288,-0.2923,-0.2959,-0.2989,-0.302,-0.3058,-0.306,-0.3083,-0.3085,-0.3083,-0.3082,-0.3072,-0.3072,-0.3077,-0.31,-0.3077,-0.3086,-0.3088,-0.3089,-0.3055,-0.302,-0.3013,-0.3092,-0.3092,-0.3092,0,0,-0.2879,-0.2901,-0.2919,-0.2962,-0.2995,-0.3008,-0.3031,-0.3098,-0.3084,-0.3093,-0.309,-0.3106,-0.3089,-0.3081,-0.3092,-0.308,-0.3063,-0.3093,-0.3093,-0.3058,-0.3023,-0.3014,-0.3007,-0.3094,-0.3094,-0.3093,0,0,-0.2909,-0.2937,-0.2954,-0.2983,-0.3054,-0.3059,-0.3091,-0.3132,-0.3127,-0.3165,-0.3134,-0.3139,-0.3171,-0.3102,-0.308,-0.3112,-0.3084,-0.3136,-0.308,-0.3048,-0.3039,-0.3031,-0.3013,-0.3004,-0.3121,-0.3121,-0.3121,0,-0.293,-0.292,-0.298,-0.2991,-0.301,-0.3077,-0.3076,-0.3089,-0.3135,-0.3131,-0.3167,-0.3159,-0.3151,-0.3076,-0.3065,-0.3101,-0.31,-0.3063,-0.3042,-0.3034,-0.3026,-0.301,-0.2999,-0.3119,-0.3119,-0.312,-0.312,0,-0.2928,-0.294,-0.2967,-0.2962,-0.2998,-0.3025,-0.3052,-0.3082,-0.3114,-0.3113,-0.3115,-0.3114,-0.309,-0.3093,-0.3081,-0.3013,-0.3039,-0.3055,-0.302,-0.3015,-0.3,-0.299,-0.3117,-0.3118,-0.3118,-0.3119,0,0,-0.2894,-0.2945,-0.295,-0.2937,-0.2973,-0.2995,-0.2999,-0.2998,-0.2998,-0.304,-0.3015,-0.2987,-0.3008,-0.2985,-0.2977,-0.2938,-0.2887,-0.2971,-0.297,-0.2922,-0.2835,-0.2762,-0.2745,-0.291,-0.2908,-0.2906,-0.2852,0,-0.2854,-0.285,-0.2885,-0.2872,-0.2861,-0.2913,-0.2907,-0.2927,-0.2961,-0.2968,-0.2956,-0.295,-0.2958,-0.296,-0.2916,-0.2911,-0.2858,-0.2901,-0.2874,-0.2872,-0.2781,-0.2728,-0.2533,-0.2461,-0.2842,-0.2841,-0.284,0,-0.2802,-0.2797,-0.277,-0.2795,-0.28,-0.28,-0.2806,-0.2817,-0.2841,-0.2877,-0.287,-0.2896,-0.2832,-0.2867,-0.2794,-0.2834,-0.2812,-0.2807,-0.2805,-0.2729,-0.2778,-0.2528,-0.2428,-0.2823,-0.2824,-0.2825,-0.2826,0,-0.2692,-0.2719,-0.2684,-0.2683,-0.2715,-0.2715,-0.274,-0.2776,-0.2795,-0.2814,-0.2848,-0.2805,-0.2806,-0.2765,-0.2757,-0.2782,-0.27,-0.2735,-0.2635,-0.2633,-0.2449,-0.2432,-0.2648,-0.2648,-0.2648,-0.2648,-0.2649,0,-0.2592,-0.2573,-0.2636,-0.2599,-0.2583,-0.264,-0.264,-0.2678,-0.2728,-0.2733,-0.2785,-0.2778,-0.2786,-0.2762,-0.2736,-0.2647,-0.2675,-0.2587,-0.2591,-0.2438,-0.2422,-0.2725,-0.2735,-0.2646,-0.2647,-0.2647,-0.2648,0,-0.2463,-0.2504,-0.2474,-0.2506,-0.2524,-0.2513,-0.2597,-0.2604,-0.2676,-0.2688,-0.2696,-0.2752,-0.2715,-0.2711,-0.2657,-0.2615,-0.2545,-0.2503,-0.2331,-0.2313,-0.2509,-0.2518,-0.2374,-0.237,-0.2367,-0.2365,-0.2362,0,-0.2388,-0.2351,-0.2394,-0.2391,-0.2401,-0.2423,-0.2443,-0.2547,-0.2571,-0.2652,-0.264,-0.2649,-0.26,-0.2517,-0.2433,-0.2342,-0.2447,-0.2138,-0.2116,-0.245,-0.247,-0.2484,-0.2497,-0.188,-0.1874,-0.1869,-0.1865,0,-0.2214,-0.2248,-0.2229,-0.2236,-0.2254,-0.2287,-0.2332,-0.2356,-0.2464,-0.2489,-0.2488,-0.2458,-0.2384,-0.2198,-0.2119,-0.2048,-0.2139,-0.2037,-0.2393,-0.1988,-0.1981,-0.2003,-0.2032,-0.1822,-0.1827,-0.183,-0.1832,-0.1834,-0.2095,-0.2063,-0.2064,-0.2062,-0.2093,-0.2114,-0.2096,-0.2164,-0.2185,-0.2178,-0.2256,-0.2129,-0.2106,-0.1843,-0.1757,-0.1695,-0.1839,-0.1774,-0.179,-0.181,-0.177,-0.1759,-0.1552,-0.1555,-0.1557,-0.1559,-0.1561,0,-0.1918,-0.1905,-0.189,-0.1888,-0.1861,-0.1943,-0.198,-0.192,-0.1882,-0.1909,-0.1868,-0.1618,-0.1508,-0.1491,-0.1311,-0.1298,-0.1295,-0.1266,-0.1262,-0.1303,-0.1341,-0.1279,-0.093,-0.0928,-0.0927,-0.0925,0,0,-0.1816,-0.174,-0.1737,-0.164,-0.1648,-0.1564,-0.1554,-0.1494,-0.1467,-0.1354,-0.1285,-0.1385,-0.1402,-0.1147,-0.1114,-0.0988,-0.1135,-0.0939,-0.1439,-0.1471,-0.1507,-0.1621,-0.157,0,0,0,0,0]},{"header":{"parameterUnit":"m.s-1","parameterCategory":2,"la1":30.2991,"la2":30.254,"lo1":-89.0895,"lo2":-89.0444,"dy":0.0017,"dx":0.0017,"nx":28,"ny":28,"refTime":"2025-03-23T21:00:00:Z","depth":"2","parameterNumber":3,"parameterNumberName":"V-component_of_CURRENTS"},"data":[0,0,0,0,0,0,0,0,0,0,0,0,0,0,0,0,0,0,0,0,0,0,0,0,0,0,0,0,0,0,0,0,0,0,0,0,0,0,0,0,0,0,0,0,0,0,0,0,0,0,0,0,0,0,0,0,0,0,-0.0432,-0.0429,0,-0.0278,-0.0278,-0.0278,-0.0269,-0.0269,-0.0269,-0.0269,-0.0008,-0.0002,0.0005,0,0,0,0,0,0,0,0,0,0,0,0,0,-0.0574,-0.0575,-0.0433,-0.0429,-0.0425,-0.0278,-0.0278,-0.0278,-0.0269,-0.0269,-0.0269,-0.0269,-0.001,-0.0002,0.0006,0,0,0,0,0,0,0,0,0,0,0,0,0,-0.0495,-0.0575,-0.0433,-0.0388,-0.0381,-0.0278,-0.0278,-0.0278,-0.0269,-0.0269,-0.0269,-0.0269,-0.0013,-0.0003,0.0007,0.0067,0,0,0.0038,0.0043,0,0,0,0,0,0,0,0,-0.05,-0.0493,-0.0398,-0.0391,-0.0382,-0.0275,-0.0231,-0.015,-0.0269,-0.0333,-0.0269,-0.0268,-0.0074,-0.0059,-0.0061,0.008,0.0091,0.0039,0.0045,0.005,0.0053,0,0,0,0,0,0,0,-0.0506,-0.0498,-0.0392,-0.0394,-0.0384,-0.0323,-0.0316,-0.0217,-0.022,-0.0327,-0.0321,-0.0272,-0.0072,-0.0071,-0.0054,0.0095,0.0039,0.0048,0.0054,0.0058,0.0296,0.0296,0,0,0,0,0,0,-0.0492,-0.0505,-0.0397,-0.0385,-0.0419,-0.032,-0.0313,-0.0326,-0.0223,-0.0202,-0.0272,-0.0271,-0.0089,-0.0066,-0.0044,0.004,0.005,0.0059,0.0065,0.0296,0.0296,0.0296,0,0,0,0,0,0,-0.0497,-0.0487,-0.0403,-0.0421,-0.0403,-0.0317,-0.0333,-0.0323,-0.0298,-0.0178,-0.016,-0.0252,-0.0088,-0.0059,0.0051,0.0051,0.0064,0.0073,0.0296,0.0296,0.0296,0.0208,0,0,0,0,0,0,-0.0503,-0.0492,-0.0491,-0.0423,-0.0401,-0.0341,-0.033,-0.0319,-0.0258,-0.0257,-0.0154,-0.0132,-0.0085,0.0035,0.0061,0.0065,0.0081,0.0295,0.0296,0.0296,0.021,0.0205,0.02,0,0,0,0,0,-0.051,-0.0522,-0.0494,-0.0478,-0.0409,-0.0338,-0.0325,-0.0274,-0.0257,-0.0254,-0.018,-0.0134,0.0054,0.0045,0.0075,0.0082,0.0295,0.0296,0.0296,0.0213,0.0206,0.02,0,0,0,0,0,0,-0.0581,-0.0517,-0.0487,-0.0479,-0.0402,-0.0329,-0.0305,-0.026,-0.0205,-0.0198,-0.0109,-0.0082,0.0009,0.0065,0.0052,0.0148,0.0175,0.0181,0.0101,0.0096,0.009,0.0073,0.009,0,0,0,0,0,-0.059,-0.0594,-0.05,-0.0489,-0.0455,-0.0375,-0.0333,-0.0295,-0.0225,-0.0203,-0.0122,-0.0043,0.003,0.0079,0.0154,0.0228,0.0275,0.0245,0.024,0.0235,0.0241,0.0296,0.0295,0.0297,0.0297,0.0297,0,0,-0.0604,-0.057,-0.0566,-0.0502,-0.045,-0.0406,-0.0358,-0.0299,-0.0262,-0.0174,-0.011,-0.0039,0.0049,0.0111,0.0155,0.0161,0.0259,0.0235,0.023,0.0239,0.0296,0.0296,0.0295,0.0298,0.0297,0.0297,0,0,-0.0631,-0.0615,-0.0614,-0.0562,-0.0464,-0.0418,-0.0392,-0.0304,-0.0273,-0.0184,-0.013,-0.0056,0.007,0.011,0.0151,0.0175,0.0236,0.0194,0.0154,0.0206,0.0206,0.0207,0.0258,0.0265,0.0182,0.0182,0.0182,0,-0.0645,-0.0639,-0.0594,-0.0568,-0.0519,-0.0424,-0.0393,-0.0348,-0.0232,-0.0198,-0.017,-0.0015,0.0062,0.0125,0.0117,0.0164,0.0202,0.0166,0.0198,0.0199,0.0202,0.0255,0.0262,0.0178,0.0178,0.0179,0.0179,0,-0.0663,-0.0641,-0.0635,-0.0587,-0.0538,-0.0496,-0.0407,-0.0362,-0.0298,-0.0238,-0.0147,-0.0056,0.0029,0.0055,0.0099,0.0143,0.0168,0.0188,0.0206,0.0196,0.0253,0.0262,0.0172,0.0173,0.0175,0.0176,0,0,-0.0744,-0.0665,-0.0661,-0.0634,-0.0544,-0.051,-0.0457,-0.0379,-0.0347,-0.0247,-0.0199,-0.0094,-0.0046,0.0004,0.0061,0.0103,0.0149,0.0142,0.0147,0.0182,0.0264,0.0309,0.0324,0.0168,0.0169,0.017,0.0295,0,-0.0763,-0.0732,-0.0686,-0.0644,-0.0613,-0.0535,-0.0498,-0.0421,-0.0347,-0.0282,-0.019,-0.0117,-0.0066,-0.0032,0.0019,0.0126,0.0172,0.0114,0.0281,0.0287,0.0318,0.0336,0.0288,0.0398,0.0305,0.0306,0.0307,0,-0.0795,-0.0765,-0.0734,-0.067,-0.0654,-0.0626,-0.0561,-0.0511,-0.0408,-0.0352,-0.0272,-0.0186,-0.0096,-0.0058,0.0105,0.0063,0.0157,0.0233,0.024,0.0322,0.035,0.0398,0.0419,0.0324,0.0323,0.0322,0.0321,0,-0.0867,-0.0805,-0.0787,-0.0762,-0.0676,-0.0664,-0.0625,-0.0537,-0.05,-0.0399,-0.0359,-0.0234,-0.0161,-0.0039,0.0131,0.0117,0.0312,0.0314,0.0443,0.0447,0.0463,0.0467,0.0426,0.0426,0.0426,0.0426,0.0425,0,-0.0906,-0.089,-0.0823,-0.0809,-0.0805,-0.0729,-0.0714,-0.0658,-0.0575,-0.0526,-0.0409,-0.0335,-0.0153,-0.0011,0.0122,0.0323,0.031,0.0452,0.0488,0.0431,0.043,0.0413,0.0409,0.043,0.0429,0.0428,0.0428,0,-0.0968,-0.0923,-0.0903,-0.0841,-0.0833,-0.0834,-0.0784,-0.0766,-0.0682,-0.0615,-0.0584,-0.04,-0.0207,-0.002,0.0207,0.0323,0.0499,0.0571,0.0496,0.0522,0.0598,0.0589,0.0722,0.0725,0.0727,0.0729,0.0731,0,-0.0988,-0.0981,-0.0951,-0.0961,-0.0936,-0.0927,-0.0919,-0.0836,-0.0803,-0.0641,-0.061,-0.0404,-0.0229,0.0114,0.0341,0.0587,0.058,0.0685,0.0657,0.0609,0.0631,0.0618,0.0606,0.0639,0.064,0.064,0.0641,0,-0.1021,-0.1019,-0.1008,-0.1034,-0.1042,-0.104,-0.1014,-0.1,-0.088,-0.078,-0.06,-0.0442,-0.0111,0.0173,0.0482,0.0611,0.0639,0.0707,0.0691,0.0571,0.0542,0.0559,0.0548,0.0646,0.0646,0.0645,0.0645,0.0645,-0.1054,-0.1071,-0.1073,-0.1101,-0.1121,-0.1129,-0.1114,-0.1043,-0.095,-0.0757,-0.0609,-0.0329,-0.009,0.0371,0.0565,0.0738,0.0739,0.0775,0.0769,0.0763,0.073,0.0707,0.0837,0.0837,0.0838,0.0838,0.0838,0,-0.1076,-0.1099,-0.1136,-0.1165,-0.1206,-0.1191,-0.1154,-0.1111,-0.097,-0.0734,-0.0515,-0.0224,0.0114,0.0358,0.0643,0.0814,0.0771,0.0827,0.0732,0.0726,0.0721,0.0682,0.0778,0.0778,0.0779,0.0779,0,0,-0.109,-0.1127,-0.1146,-0.1221,-0.125,-0.1253,-0.122,-0.1117,-0.0946,-0.0704,-0.0449,-0.0154,0.0148,0.0335,0.0523,0.0667,0.0649,0.0669,0.0698,0.0556,0.0549,0.0672,0.0604,0,0,0,0,0]}],[{"header":{"parameterUnit":"m.s-1","parameterCategory":2,"la1":30.2991,"la2":30.254,"lo1":-89.0895,"lo2":-89.0444,"dy":0.0017,"dx":0.0017,"nx":28,"ny":28,"refTime":"2025-03-23T21:00:00:Z","depth":"4","parameterNumber":2,"parameterNumberName":"U-component_of_CURRENTS"},"data":[0,0,0,0,0,0,0,0,0,0,0,0,0,0,0,0,0,0,0,0,0,0,0,0,0,0,0,0,0,0,0,0,0,0,0,0,0,0,0,0,0,0,0,0,0,0,0,0,0,0,0,0,0,0,0,0,0,0,-0.153,-0.1531,0,-0.1606,-0.1607,-0.1608,-0.1611,-0.161,-0.1609,-0.1609,-0.1713,-0.1717,-0.172,0,0,0,0,0,0,0,0,0,0,0,0,0,-0.1389,-0.1392,-0.153,-0.1531,-0.1532,-0.1606,-0.1607,-0.1608,-0.1611,-0.161,-0.1609,-0.1608,-0.1712,-0.1716,-0.1721,0,0,0,0,0,0,0,0,0,0,0,0,0,-0.1454,-0.1393,-0.153,-0.1544,-0.1547,-0.1606,-0.1607,-0.1608,-0.1611,-0.161,-0.1609,-0.1608,-0.1711,-0.1716,-0.1721,-0.1774,0,0,-0.1737,-0.1739,0,0,0,0,0,0,0,0,-0.1451,-0.1459,-0.1541,-0.1544,-0.1546,-0.16,-0.1596,-0.1666,-0.1611,-0.1584,-0.1609,-0.1608,-0.1681,-0.1688,-0.1701,-0.1779,-0.1783,-0.1737,-0.174,-0.1743,-0.1744,0,0,0,0,0,0,0,-0.1446,-0.1456,-0.1558,-0.1543,-0.1546,-0.1548,-0.1556,-0.1609,-0.1636,-0.1587,-0.1588,-0.16,-0.1682,-0.1696,-0.1704,-0.1785,-0.1737,-0.1742,-0.1745,-0.1747,-0.1919,-0.1921,0,0,0,0,0,0,-0.1443,-0.1452,-0.1556,-0.156,-0.1497,-0.1552,-0.156,-0.1582,-0.1635,-0.1642,-0.1601,-0.16,-0.1688,-0.1698,-0.1707,-0.18,-0.1743,-0.1747,-0.175,-0.1918,-0.192,-0.1921,0,0,0,0,0,0,-0.144,-0.1452,-0.1553,-0.1509,-0.1522,-0.1556,-0.158,-0.1584,-0.1628,-0.1646,-0.1653,-0.1643,-0.1687,-0.17,-0.1772,-0.1803,-0.175,-0.1754,-0.1916,-0.1918,-0.192,-0.1968,0,0,0,0,0,0,-0.1436,-0.1451,-0.1474,-0.1509,-0.1525,-0.1602,-0.1581,-0.1586,-0.1636,-0.1637,-0.1685,-0.1691,-0.1687,-0.1764,-0.1777,-0.1809,-0.1759,-0.1914,-0.1917,-0.192,-0.1965,-0.1972,-0.1978,0,0,0,0,0,-0.143,-0.1461,-0.1475,-0.1488,-0.1553,-0.1604,-0.1613,-0.163,-0.164,-0.1665,-0.1696,-0.1691,-0.1789,-0.177,-0.1785,-0.1819,-0.1913,-0.1916,-0.1919,-0.1962,-0.1971,-0.1978,0,0,0,0,0,0,-0.1418,-0.1466,-0.1481,-0.1527,-0.1571,-0.1605,-0.1634,-0.1658,-0.1704,-0.1712,-0.1727,-0.1736,-0.1803,-0.1813,-0.1792,-0.1874,-0.1845,-0.1852,-0.1873,-0.1881,-0.1888,-0.1889,-0.1763,0,0,0,0,0,-0.1427,-0.1459,-0.1508,-0.1548,-0.1574,-0.1616,-0.1645,-0.1664,-0.1705,-0.1726,-0.1758,-0.1792,-0.1826,-0.1856,-0.1884,-0.1952,-0.194,-0.1978,-0.1984,-0.199,-0.2,-0.2012,-0.2021,-0.1932,-0.1932,-0.1932,0,0,-0.1436,-0.1465,-0.1487,-0.1548,-0.1583,-0.1637,-0.1631,-0.1687,-0.1736,-0.1733,-0.1812,-0.1826,-0.1849,-0.1903,-0.1934,-0.192,-0.2005,-0.1994,-0.1998,-0.2006,-0.2017,-0.2025,-0.2033,-0.1934,-0.1934,-0.1934,0,0,-0.1456,-0.1498,-0.1528,-0.1571,-0.1631,-0.1669,-0.1697,-0.1756,-0.1783,-0.1863,-0.1858,-0.1889,-0.197,-0.1967,-0.1982,-0.2051,-0.2038,-0.2069,-0.2112,-0.2124,-0.2131,-0.2137,-0.2114,-0.2118,-0.2074,-0.2074,-0.2074,0,-0.1463,-0.1521,-0.1548,-0.1589,-0.1643,-0.1692,-0.1756,-0.1794,-0.1868,-0.19,-0.1896,-0.1984,-0.1992,-0.2046,-0.2054,-0.2065,-0.2066,-0.2078,-0.2131,-0.2137,-0.2143,-0.2118,-0.2122,-0.2077,-0.2076,-0.2076,-0.2076,0,-0.1505,-0.1564,-0.1591,-0.1667,-0.1721,-0.179,-0.1851,-0.1907,-0.1959,-0.1991,-0.2062,-0.2067,-0.211,-0.2115,-0.2111,-0.2157,-0.2142,-0.2135,-0.2108,-0.2154,-0.2125,-0.2128,-0.2081,-0.208,-0.2079,-0.2078,0,0,-0.1489,-0.1603,-0.1615,-0.1669,-0.1779,-0.1826,-0.1917,-0.201,-0.2059,-0.2118,-0.2174,-0.2214,-0.2207,-0.2221,-0.221,-0.2218,-0.2234,-0.2203,-0.2202,-0.2174,-0.2251,-0.209,-0.2077,-0.225,-0.2251,-0.2252,-0.2207,0,-0.1526,-0.1624,-0.1678,-0.1794,-0.186,-0.1939,-0.2012,-0.2089,-0.2149,-0.2205,-0.2221,-0.2262,-0.2251,-0.2259,-0.2274,-0.2244,-0.2249,-0.2246,-0.2216,-0.2214,-0.2061,-0.2078,-0.2256,-0.2209,-0.221,-0.221,-0.221,0,-0.1537,-0.1619,-0.1739,-0.1864,-0.1899,-0.1975,-0.2104,-0.217,-0.2248,-0.2283,-0.2333,-0.2339,-0.2361,-0.2333,-0.2333,-0.2341,-0.2308,-0.228,-0.2278,-0.2116,-0.2059,-0.2159,-0.2215,-0.2215,-0.2214,-0.2214,-0.2214,0,-0.1502,-0.1644,-0.1754,-0.1804,-0.1957,-0.2024,-0.2104,-0.2198,-0.2242,-0.2323,-0.2347,-0.2394,-0.2393,-0.2394,-0.2338,-0.2349,-0.2314,-0.2314,-0.214,-0.2128,-0.2265,-0.2259,-0.2317,-0.2317,-0.2317,-0.2317,-0.2317,0,-0.1503,-0.1584,-0.1749,-0.1813,-0.1921,-0.202,-0.2117,-0.2188,-0.2269,-0.2295,-0.2373,-0.2371,-0.2414,-0.2394,-0.2358,-0.2239,-0.233,-0.2143,-0.2109,-0.2283,-0.228,-0.2265,-0.226,-0.2315,-0.2316,-0.2316,-0.2316,0,-0.143,-0.1547,-0.1671,-0.1857,-0.1906,-0.1977,-0.211,-0.215,-0.2247,-0.2279,-0.23,-0.236,-0.2322,-0.2328,-0.2294,-0.2224,-0.2147,-0.2085,-0.2249,-0.2225,-0.1951,-0.1949,-0.1893,-0.1887,-0.1881,-0.1877,-0.1874,0,-0.1395,-0.1463,-0.1674,-0.1727,-0.1818,-0.1932,-0.1984,-0.2117,-0.2146,-0.2234,-0.2218,-0.2234,-0.2245,-0.2061,-0.2101,-0.202,-0.1997,-0.1957,-0.1979,-0.1937,-0.191,-0.1916,-0.1921,-0.1866,-0.1864,-0.1863,-0.1862,0,-0.1337,-0.143,-0.1535,-0.165,-0.1733,-0.1815,-0.1903,-0.191,-0.2026,-0.2134,-0.2061,-0.2024,-0.1973,-0.1935,-0.1881,-0.1831,-0.1988,-0.1904,-0.1915,-0.1936,-0.1904,-0.1883,-0.1894,-0.1844,-0.1847,-0.1848,-0.1849,0,-0.1269,-0.1322,-0.1454,-0.1532,-0.1625,-0.1651,-0.1732,-0.1749,-0.1795,-0.1896,-0.1859,-0.1872,-0.1933,-0.1833,-0.1782,-0.1719,-0.1701,-0.1659,-0.1682,-0.1702,-0.1662,-0.1594,-0.1403,0,0,0,0,0,-0.1183,-0.1227,-0.1306,-0.1389,-0.1471,-0.1517,-0.164,-0.1718,-0.1832,-0.1723,-0.1786,-0.1721,-0.1641,-0.166,-0.1551,-0.1709,-0.172,-0.158,-0.1688,-0.1747,-0.1767,-0.1737,0,0,0,0,0,0,-0.112,-0.1204,-0.1262,-0.1239,-0.1246,-0.1318,-0.1386,-0.1478,-0.1437,-0.155,-0.1509,-0.1599,-0.1545,-0.1643,-0.1498,-0.1506,-0.1538,-0.1606,-0.1602,-0.1735,-0.1754,-0.177,-0.1747,0,0,0,0,0]},{"header":{"parameterUnit":"m.s-1","parameterCategory":2,"la1":30.2991,"la2":30.254,"lo1":-89.0895,"lo2":-89.0444,"dy":0.0017,"dx":0.0017,"nx":28,"ny":28,"refTime":"2025-03-23T21:00:00:Z","depth":"4","parameterNumber":3,"parameterNumberName":"V-component_of_CURRENTS"},"data":[0,0,0,0,0,0,0,0,0,0,0,0,0,0,0,0,0,0,0,0,0,0,0,0,0,0,0,0,0,0,0,0,0,0,0,0,0,0,0,0,0,0,0,0,0,0,0,0,0,0,0,0,0,0,0,0,0,0,-0.0529,-0.0528,0,-0.0519,-0.0519,-0.052,-0.0553,-0.0554,-0.0554,-0.0555,-0.0476,-0.0473,-0.0471,0,0,0,0,0,0,0,0,0,0,0,0,0,-0.0572,-0.0571,-0.0529,-0.0528,-0.0527,-0.0519,-0.0519,-0.052,-0.0553,-0.0554,-0.0554,-0.0555,-0.0477,-0.0474,-0.0471,0,0,0,0,0,0,0,0,0,0,0,0,0,-0.0562,-0.0571,-0.0529,-0.0539,-0.0539,-0.0519,-0.0519,-0.052,-0.0553,-0.0554,-0.0554,-0.0555,-0.0478,-0.0474,-0.047,-0.0432,0,0,-0.0458,-0.0457,0,0,0,0,0,0,0,0,-0.0562,-0.0561,-0.0538,-0.0538,-0.0538,-0.0533,-0.0505,-0.0485,-0.0553,-0.0553,-0.0555,-0.0555,-0.0484,-0.048,-0.0485,-0.0428,-0.0424,-0.0458,-0.0456,-0.0454,-0.0453,0,0,0,0,0,0,0,-0.0563,-0.0561,-0.053,-0.0537,-0.0537,-0.0542,-0.0542,-0.0503,-0.0518,-0.0553,-0.0554,-0.0544,-0.0485,-0.0489,-0.0484,-0.0423,-0.0458,-0.0455,-0.0452,-0.0451,-0.0348,-0.0347,0,0,0,0,0,0,-0.0552,-0.0562,-0.0531,-0.053,-0.0546,-0.054,-0.0541,-0.0539,-0.052,-0.0517,-0.0544,-0.0546,-0.0495,-0.0488,-0.0481,-0.0429,-0.0454,-0.0451,-0.0448,-0.0348,-0.0347,-0.0347,0,0,0,0,0,0,-0.0554,-0.055,-0.0531,-0.0541,-0.0538,-0.0538,-0.0536,-0.0538,-0.0549,-0.0512,-0.0509,-0.0553,-0.0496,-0.0486,-0.044,-0.0426,-0.0449,-0.0445,-0.0348,-0.0348,-0.0347,-0.0327,0,0,0,0,0,0,-0.0555,-0.0551,-0.056,-0.054,-0.0537,-0.0521,-0.0535,-0.0537,-0.0538,-0.0542,-0.0518,-0.0512,-0.0496,-0.0446,-0.0436,-0.0421,-0.0442,-0.0349,-0.0348,-0.0347,-0.0328,-0.0326,-0.0324,0,0,0,0,0,-0.0557,-0.0567,-0.056,-0.0557,-0.0545,-0.052,-0.052,-0.0526,-0.0538,-0.054,-0.0517,-0.0513,-0.0435,-0.0441,-0.043,-0.0414,-0.0349,-0.0348,-0.0347,-0.0329,-0.0326,-0.0324,0,0,0,0,0,0,-0.0589,-0.0569,-0.0563,-0.0566,-0.0542,-0.0524,-0.0531,-0.0527,-0.0514,-0.0518,-0.0493,-0.0484,-0.0447,-0.043,-0.0439,-0.0385,-0.0396,-0.0393,-0.0387,-0.0383,-0.0381,-0.037,-0.0439,0,0,0,0,0,-0.0596,-0.0608,-0.0569,-0.0575,-0.056,-0.0545,-0.0541,-0.0535,-0.0513,-0.0512,-0.0487,-0.0462,-0.0433,-0.0408,-0.0385,-0.0338,-0.0306,-0.0327,-0.0324,-0.0322,-0.0307,-0.0231,-0.022,-0.0344,-0.0344,-0.0344,0,0,-0.0609,-0.0602,-0.0607,-0.0584,-0.0571,-0.0543,-0.0547,-0.0535,-0.0513,-0.0499,-0.047,-0.0452,-0.0422,-0.0381,-0.0363,-0.0362,-0.0275,-0.0321,-0.0319,-0.0305,-0.0229,-0.0216,-0.0205,-0.0343,-0.0343,-0.0343,0,0,-0.0628,-0.063,-0.0633,-0.061,-0.0581,-0.056,-0.0553,-0.0522,-0.0513,-0.0472,-0.0462,-0.0422,-0.0385,-0.0347,-0.0327,-0.0291,-0.0272,-0.0304,-0.0268,-0.0194,-0.0183,-0.0172,-0.0134,-0.012,-0.0293,-0.0293,-0.0293,0,-0.0644,-0.0637,-0.0628,-0.0611,-0.059,-0.0563,-0.0537,-0.0517,-0.0475,-0.045,-0.0463,-0.0388,-0.0363,-0.0292,-0.0288,-0.0282,-0.0255,-0.028,-0.0188,-0.0177,-0.0167,-0.013,-0.0115,-0.0292,-0.0292,-0.0293,-0.0293,0,-0.0645,-0.0638,-0.0635,-0.0605,-0.0582,-0.056,-0.0509,-0.0485,-0.0469,-0.0437,-0.0378,-0.0337,-0.0291,-0.0281,-0.0272,-0.019,-0.0202,-0.02,-0.0192,-0.0152,-0.0117,-0.0102,-0.0291,-0.0291,-0.0291,-0.0292,0,0,-0.0682,-0.0644,-0.0645,-0.0627,-0.0575,-0.0557,-0.0507,-0.0447,-0.0422,-0.0371,-0.0325,-0.0261,-0.0243,-0.0218,-0.0196,-0.0126,-0.0037,-0.0134,-0.013,-0.0089,0.0102,0.0061,0.0073,-0.002,-0.0017,-0.0014,0.0091,0,-0.0681,-0.066,-0.0634,-0.0602,-0.0576,-0.053,-0.0492,-0.0437,-0.0396,-0.0346,-0.0275,-0.0235,-0.0217,-0.0204,-0.0124,-0.0073,0.0007,-0.0067,0.0053,0.0056,0.0022,0.0092,-0.0004,0.0102,0.0106,0.0108,0.011,0,-0.0683,-0.0668,-0.0642,-0.0598,-0.0582,-0.0563,-0.0502,-0.0462,-0.0374,-0.0342,-0.0266,-0.0224,-0.0121,-0.0122,0.0038,-0.0016,0.0054,0.0105,0.011,0.0081,0.0045,0.0059,0.0139,0.0136,0.0134,0.0132,0.0131,0,-0.0717,-0.0675,-0.0663,-0.0646,-0.0587,-0.0573,-0.0544,-0.0467,-0.0437,-0.0344,-0.032,-0.0189,-0.0147,-0.0021,0.0077,0.0063,0.0242,0.0235,0.0276,0.0272,0.0267,0.0255,0.0382,0.0381,0.0381,0.0381,0.0381,0,-0.0723,-0.0714,-0.0688,-0.068,-0.0671,-0.0615,-0.0596,-0.0547,-0.0477,-0.0436,-0.0333,-0.0276,-0.0118,-0.0006,0.0096,0.0224,0.0265,0.0305,0.0314,0.0267,0.0254,0.0277,0.0263,0.0385,0.0384,0.0383,0.0383,0,-0.0753,-0.0735,-0.0727,-0.0692,-0.069,-0.069,-0.0658,-0.0637,-0.0567,-0.0512,-0.0485,-0.0334,-0.0189,-0.0037,0.0157,0.0228,0.0363,0.0404,0.0327,0.0326,0.0339,0.0325,0.047,0.047,0.047,0.047,0.047,0,-0.0759,-0.076,-0.0764,-0.0782,-0.0774,-0.077,-0.0768,-0.0699,-0.067,-0.0545,-0.0518,-0.0365,-0.0256,-0.0008,0.0146,0.0352,0.0377,0.0439,0.0421,0.0363,0.0357,0.0343,0.033,0.047,0.047,0.0469,0.0469,0,-0.0769,-0.079,-0.0791,-0.0836,-0.0856,-0.0858,-0.0844,-0.0828,-0.0732,-0.0675,-0.0524,-0.037,-0.0207,-0.001,0.0145,0.0293,0.0394,0.0438,0.044,0.0423,0.0363,0.0354,0.0342,0.0469,0.0469,0.0469,0.0469,0,-0.0792,-0.0812,-0.0842,-0.0873,-0.0914,-0.0926,-0.0909,-0.0844,-0.0793,-0.064,-0.0593,-0.0388,-0.0255,-0.004,0.0105,0.0241,0.0275,0.0312,0.0321,0.0323,0.024,0.014,0.0211,0,0,0,0,0,-0.0798,-0.0828,-0.0872,-0.0908,-0.0956,-0.0971,-0.0946,-0.0912,-0.0824,-0.0724,-0.0647,-0.0482,-0.0228,-0.0108,0.0023,0.0073,0.0269,0.0227,0.0307,0.0466,0.0466,0.0391,0,0,0,0,0,0,-0.0807,-0.0854,-0.0871,-0.0933,-0.0971,-0.1005,-0.0991,-0.0931,-0.0852,-0.0745,-0.0605,-0.0482,-0.0239,-0.0315,0.0012,0.0057,0.0119,0.0361,0.0363,0.0465,0.0466,0.0467,0.0389,0,0,0,0,0]}]]